This is the latest recevied weather packets stored in our database for station/object K7SKM. If no packets are shown the sender has not sent any weather packets the latest 10 day(s).
| Time | Temp. | Humidity | Pressure | Rain* | Wind** | Luminosity | Snow |
|---|---|---|---|---|---|---|---|
| 1788155058 | 15° C | 72% | 1021.7 hPa | 0 mm | - | 0 W/m² | - |
| 1788154758 | 15° C | 71% | 1021.7 hPa | 0 mm | - | 0 W/m² | - |
| 1788154456 | 15.56° C | 70% | 1022 hPa | 0 mm | - | 0 W/m² | - |
| 1788154151 | 15° C | 70% | 1022.1 hPa | 0 mm | - | 0 W/m² | - |
| 1788153867 | 15° C | 71% | 1022 hPa | 0 mm | - | 0 W/m² | - |
| 1788153549 | 15° C | 71% | 1022 hPa | 0 mm | - | 0 W/m² | - |
| 1788153247 | 15° C | 70% | 1021.9 hPa | 0 mm | - | 0 W/m² | - |
| 1788152942 | 15° C | 70% | 1022.1 hPa | 0 mm | - | 0 W/m² | - |
| 1788152636 | 15.56° C | 69% | 1022.1 hPa | 0 mm | - | 0 W/m² | - |
| 1788152330 | 15.56° C | 69% | 1021.8 hPa | 0 mm | - | 0 W/m² | - |
| 1788152029 | 15.56° C | 68% | 1022.1 hPa | 0 mm | - | 0 W/m² | - |
| 1788151724 | 15.56° C | 68% | 1022.3 hPa | 0 mm | - | 0 W/m² | - |
| 1788151419 | 15.56° C | 68% | 1022.1 hPa | 0 mm | - | 0 W/m² | - |
| 1788151116 | 15.56° C | 68% | 1022.2 hPa | 0 mm | - | 0 W/m² | - |
| 1788150815 | 15.56° C | 68% | 1022.1 hPa | 0 mm | - | 0 W/m² | - |
| 1788150513 | 15.56° C | 67% | 1022.1 hPa | 0 mm | - | 0 W/m² | - |
| 1788150209 | 15.56° C | 67% | 1022.1 hPa | 0 mm | - | 0 W/m² | - |
| 1788149905 | 16.11° C | 66% | 1022.3 hPa | 0 mm | - | 0 W/m² | - |
| 1788149604 | 16.11° C | 64% | 1022.2 hPa | 0 mm | - | 0 W/m² | - |
| 1788149299 | 16.67° C | 64% | 1022.1 hPa | 0 mm | - | 0 W/m² | - |
| 1788148998 | 16.67° C | 63% | 1022.1 hPa | 0 mm | - | 0 W/m² | - |
| 1788148697 | 17.22° C | 63% | 1022.3 hPa | 0 mm | - | 0 W/m² | - |
| 1788148395 | 17.22° C | 62% | 1022.1 hPa | 0 mm | - | 0 W/m² | - |
| 1788148090 | 17.22° C | 62% | 1022.3 hPa | 0 mm | - | 0 W/m² | - |
| 1788147786 | 17.22° C | 61% | 1022.1 hPa | 0 mm | - | 0 W/m² | - |
* Rain latest hour (hover to see other rain measurements)
** Current wind speed in m/s (hover to see current wind gust speed)